Weather History for KTWM - January, 2013

Change the Weather History Date:

Friday, January 4, 2013

  Actual Average Record
Temperature  
Mean Temperature 22 °F -  
Max Temperature 33 °F 22 °F 45 °F (1984)
Min Temperature 10 °F 4 °F -24 °F (1959)
Degree Days  
Heating Degree Days 42    
Moisture  
Dew Point 13 °F    
Average Humidity 70    
Maximum Humidity 86    
Minimum Humidity 52    
Precipitation  
Precipitation 0.00 in - - ()
Sea Level Pressure  
Sea Level Pressure 29.92 in    
Wind  
Wind Speed 7 mph (West)    
Max Wind Speed 13 mph    
Max Gust Speed 20 mph    
Visibility 10 miles    
Events      
Averages and records for this station are not official NWS values.
T = Trace of Precipitation, MM = Missing Value Source: NWS Daily Summary

Daily Weather History Graph

Daily Weather History Graph

Search for Another Location

Airport or City:

Trip Planner

Search our weather history database for the weather conditions in past years. The results will help you decide how hot, cold, wet, or windy it might be!

Date:

Astronomy

Jan. 04, 2013 Rise Set
Actual Time 7:52 AM CST 4:31 PM CST
Civil Twilight 7:17 AM CST 5:06 PM CST
Nautical Twilight 6:39 AM CST 5:45 PM CST
Astronomical Twilight 6:02 AM CST 6:22 PM CST
Moon No Moon Rise 11:05 AM CST (1/4)
Length of Visible Light 9h 49m
Length of Day
8h 39m
Waning Gibbous, 55% of the Moon is Illuminated
Jan 4
Waning Gibbous
Jan 4
Last Quarter
Jan 11
New
Jan 18
First Quarter
Jan 26
Full

Hourly Weather History & Observations

Time (CST) Temp. Windchill Dew Point Humidity Pressure Visibility Wind Dir Wind Speed Gust Speed Precip Events Conditions
12:11 AM 15.8 °F 2.7 °F 8.6 °F 73% 29.82 in 10.0 mi WSW 11.5 mph - N/A   Clear
12:32 AM 15.8 °F 4.2 °F 8.6 °F 73% 29.82 in 10.0 mi WSW 9.2 mph 18.4 mph N/A   Clear
12:51 AM 15.8 °F 2.1 °F 8.6 °F 73% 29.82 in 10.0 mi WSW 12.7 mph 19.6 mph N/A   Clear
1:11 AM 15.8 °F 2.7 °F 8.6 °F 73% 29.82 in 10.0 mi WSW 11.5 mph - N/A   Clear
1:32 AM 15.8 °F 4.2 °F 8.6 °F 73% 29.82 in 10.0 mi WSW 9.2 mph 16.1 mph N/A   Clear
1:51 AM 15.8 °F 5.1 °F 8.6 °F 73% 29.82 in 10.0 mi WSW 8.1 mph - N/A   Clear
2:11 AM 15.8 °F 5.1 °F 8.6 °F 73% 29.83 in 10.0 mi WSW 8.1 mph - N/A   Clear
2:32 AM 15.8 °F 6.1 °F 8.6 °F 73% 29.83 in 10.0 mi WSW 6.9 mph - N/A   Clear
2:51 AM 15.8 °F 5.1 °F 8.6 °F 73% 29.83 in 10.0 mi WSW 8.1 mph - N/A   Clear
3:11 AM 15.8 °F 5.1 °F 8.6 °F 73% 29.82 in 10.0 mi WSW 8.1 mph - N/A   Clear
3:32 AM 15.8 °F 6.1 °F 8.6 °F 73% 29.83 in 10.0 mi WSW 6.9 mph - N/A   Clear
3:51 AM 15.8 °F 5.1 °F 8.6 °F 73% 29.82 in 10.0 mi WSW 8.1 mph - N/A   Clear
4:11 AM 15.8 °F 6.1 °F 8.6 °F 73% 29.82 in 10.0 mi WSW 6.9 mph - N/A   Clear
4:32 AM 15.8 °F 5.1 °F 8.6 °F 73% 29.82 in 10.0 mi West 8.1 mph - N/A   Clear
4:51 AM 15.8 °F 6.1 °F 8.6 °F 73% 29.82 in 10.0 mi West 6.9 mph - N/A   Clear
5:11 AM 15.8 °F 4.2 °F 8.6 °F 73% 29.83 in 10.0 mi West 9.2 mph - N/A   Clear
5:32 AM 15.8 °F 4.2 °F 8.6 °F 73% 29.83 in 10.0 mi West 9.2 mph 16.1 mph N/A   Clear
5:51 AM 15.8 °F 6.1 °F 8.6 °F 73% 29.84 in 10.0 mi West 6.9 mph - N/A   Clear
6:11 AM 15.8 °F 7.2 °F 8.6 °F 73% 29.84 in 10.0 mi West 5.8 mph - N/A   Clear
6:32 AM 15.8 °F 8.6 °F 8.6 °F 73% 29.85 in 10.0 mi West 4.6 mph - N/A   Clear
6:51 AM 15.8 °F 7.2 °F 8.6 °F 73% 29.85 in 10.0 mi West 5.8 mph - N/A   Clear
7:11 AM 14.0 °F 6.5 °F 8.6 °F 79% 29.85 in 10.0 mi West 4.6 mph - N/A   Clear
7:31 AM 14.0 °F 6.5 °F 8.6 °F 79% 29.86 in 10.0 mi West 4.6 mph - N/A   Clear
7:51 AM 14.0 °F 5.1 °F 8.6 °F 79% 29.86 in 10.0 mi West 5.8 mph - N/A   Clear
8:11 AM 15.8 °F 7.2 °F 8.6 °F 73% 29.86 in 10.0 mi WSW 5.8 mph - N/A   Clear
8:31 AM 15.8 °F 8.6 °F 8.6 °F 73% 29.86 in 10.0 mi WSW 4.6 mph - N/A   Clear
8:51 AM 17.6 °F 9.3 °F 8.6 °F 68% 29.86 in 10.0 mi SW 5.8 mph - N/A   Clear
9:11 AM 19.4 °F 10.4 °F 10.4 °F 68% 29.87 in 10.0 mi WSW 6.9 mph - N/A   Clear
9:31 AM 21.2 °F 10.9 °F 10.4 °F 63% 29.89 in 10.0 mi West 9.2 mph - N/A   Clear
9:51 AM 21.2 °F 10.9 °F 12.2 °F 68% 29.90 in 10.0 mi West 9.2 mph - N/A   Clear
10:11 AM 23.0 °F 14.7 °F 12.2 °F 63% 29.91 in 10.0 mi West 6.9 mph - N/A   Clear
10:31 AM 24.8 °F 16.9 °F 14.0 °F 64% 29.91 in 10.0 mi West 6.9 mph - N/A   Clear
10:51 AM 26.6 °F 16.8 °F 15.8 °F 64% 29.91 in 10.0 mi West 10.4 mph - N/A   Clear
11:11 AM 28.4 °F 19.1 °F 15.8 °F 59% 29.90 in 10.0 mi West 10.4 mph - N/A   Clear
11:31 AM 28.4 °F 19.7 °F 17.6 °F 64% 29.90 in 10.0 mi West 9.2 mph - N/A   Clear
11:51 AM 30.2 °F 22.6 °F 17.6 °F 60% 29.90 in 10.0 mi WSW 8.1 mph - N/A   Clear
12:11 PM 32.0 °F 23.0 °F 17.6 °F 55% 29.89 in 10.0 mi West 11.5 mph 17.3 mph N/A   Clear
12:31 PM 33.8 °F 28.6 °F 17.6 °F 52% 29.89 in 10.0 mi West 5.8 mph - N/A   Clear
12:51 PM 33.8 °F 27.0 °F 17.6 °F 52% 29.89 in 10.0 mi WNW 8.1 mph 19.6 mph N/A   Clear
1:11 PM 33.8 °F 27.0 °F 19.4 °F 56% 29.90 in 10.0 mi West 8.1 mph - N/A   Clear
1:31 PM 33.8 °F 25.3 °F 17.6 °F 52% 29.90 in 10.0 mi West 11.5 mph 19.6 mph N/A   Clear
1:51 PM 33.8 °F 27.0 °F 19.4 °F 56% 29.90 in 10.0 mi West 8.1 mph 17.3 mph N/A   Clear
2:12 PM 33.8 °F 25.3 °F 19.4 °F 56% 29.91 in 10.0 mi West 11.5 mph 18.4 mph N/A   Clear
2:31 PM 33.8 °F 26.4 °F 19.4 °F 56% 29.92 in 10.0 mi West 9.2 mph - N/A   Clear
2:51 PM 33.8 °F 27.0 °F 19.4 °F 56% 29.92 in 10.0 mi West 8.1 mph - N/A   Clear
3:12 PM 33.8 °F 27.0 °F 19.4 °F 56% 29.94 in 10.0 mi West 8.1 mph - N/A   Clear
3:31 PM 33.8 °F 27.7 °F 19.4 °F 56% 29.95 in 10.0 mi West 6.9 mph - N/A   Clear
3:51 PM 32.0 °F 27.5 °F 19.4 °F 60% 29.97 in 10.0 mi West 4.6 mph - N/A   Clear
4:12 PM 30.2 °F 24.3 °F 17.6 °F 60% 29.98 in 10.0 mi West 5.8 mph - N/A   Clear
4:51 PM 28.4 °F 23.3 °F 17.6 °F 64% 30.00 in 10.0 mi West 4.6 mph - N/A   Clear
5:12 PM 28.4 °F - 17.6 °F 64% 30.00 in 10.0 mi Calm Calm - N/A   Clear
5:31 PM 26.6 °F 22.6 °F 17.6 °F 69% 30.00 in 10.0 mi NW 3.5 mph - N/A   Clear
5:51 PM 26.6 °F 21.2 °F 17.6 °F 69% 30.01 in 10.0 mi WNW 4.6 mph - N/A   Clear
6:11 PM 26.6 °F - 15.8 °F 64% 30.02 in 10.0 mi Calm Calm - N/A   Clear
6:32 PM 24.8 °F - 15.8 °F 69% 30.03 in 10.0 mi Calm Calm - N/A   Clear
6:51 PM 24.8 °F 20.5 °F 15.8 °F 69% 30.03 in 10.0 mi NNW 3.5 mph - N/A   Clear
7:12 PM 23.0 °F 18.4 °F 15.8 °F 74% 30.03 in 10.0 mi NW 3.5 mph - N/A   Clear
7:31 PM 21.2 °F - 15.8 °F 80% 30.04 in 10.0 mi Calm Calm - N/A   Clear
7:51 PM 21.2 °F - 15.8 °F 80% 30.05 in 10.0 mi Calm Calm - N/A   Clear
8:12 PM 21.2 °F - 15.8 °F 80% 30.05 in 10.0 mi Calm Calm - N/A   Clear
8:31 PM 21.2 °F - 15.8 °F 80% 30.05 in 10.0 mi Calm Calm - N/A   Clear
8:51 PM 19.4 °F - 14.0 °F 80% 30.06 in 10.0 mi Calm Calm - N/A   Clear
9:12 PM 19.4 °F - 14.0 °F 80% 30.05 in 10.0 mi Calm Calm - N/A   Clear
9:31 PM 17.6 °F - 12.2 °F 79% 30.05 in 10.0 mi Calm Calm - N/A   Clear
9:51 PM 15.8 °F - 10.4 °F 79% 30.05 in 10.0 mi Calm Calm - N/A   Clear
10:11 PM 15.8 °F - 10.4 °F 79% 30.05 in 10.0 mi Calm Calm - N/A   Clear
10:31 PM 14.0 °F - 10.4 °F 86% 30.06 in 10.0 mi Calm Calm - N/A   Clear
10:51 PM 12.2 °F - 8.6 °F 85% 30.07 in 10.0 mi Calm Calm - N/A   Clear
11:11 PM 14.0 °F - 8.6 °F 79% 30.07 in 10.0 mi Calm Calm - N/A   Clear
11:31 PM 14.0 °F 6.5 °F 8.6 °F 79% 30.06 in 10.0 mi NNW 4.6 mph - N/A   Clear
11:51 PM 10.4 °F - 5.0 °F 79% 30.05 in 10.0 mi Calm Calm - N/A   Clear